Regional Weather Roundup
Issued by NWS Albany, NY

Home | Current Version | Previous Version | Text Only | Print | Product List | Glossary On
Versions: 1 2 3 4 5 6 7 8 9 10 11 12 13 14 15 16 17 18 19 20 21 22 23 24 25 26 27 28 29 30 31 32 33 34 35 36 37 38 39 40 41 42 43 44 45 46 47 48 49 50
000
ASUS41 KALY 272010
RWRALY

NEW YORK STATE HOURLY WEATHER ROUNDUP
NATIONAL WEATHER SERVICE ALBANY NY
400 PM EDT WED AUG 27 2014

NOTE: "FAIR" INDICATES FEW OR NO CLOUDS BELOW 12,000 FEET WITH NO
SIGNIFICANT WEATHER AND/OR NO OBSTRUCTIONS TO VISIBILITY.

NYZ032-033-038>043-046>054-057>066-NYZ062>081-272100-
EAST


CITY           SKY/WX    TMP DP  RH WIND       PRES   REMARKS
ALBANY         PTSUNNY   82  70  66 W7        29.90F
GLENS FALLS    MOSUNNY   85  68  56 SW8G17    29.86F
POUGHKEEPSIE   MOSUNNY   90  68  48 SW5       29.86F HX  94
NEWBURGH       MOSUNNY   90  70  51 W14G20    29.91F HX  95
MONTGOMERY     PTSUNNY   89  68  49 SW10      29.88F HX  93
WHITE PLAINS   SUNNY     87  63  44 VRB5      29.90F
ISLIP          MOSUNNY   83  60  45 SW12      29.91F
NEW YORK CITY  MOSUNNY   88  64  44 S14       29.89F
CENTRAL PARK   SUNNY     89  63  41 CALM      29.92F HX  90
$$

NYZ005>009-017-018-044>046-055-056-272100-
CENTRAL


CITY           SKY/WX    TMP DP  RH WIND       PRES   REMARKS
FULTON         SUNNY     75  57  53 W14       29.98F
SYRACUSE       MOSUNNY   78  63  59 W12       29.97S
ROME           CLOUDY    75  65  70 W12       29.97S
ELMIRA         CLOUDY    79  70  74 NE10      29.96F
BINGHAMTON     MOSUNNY   77  67  71 CALM      29.99F
MONTICELLO     MOSUNNY   82  70  65 NW12G18   29.97F
$$

NYZ026>034-041>043-272100-
NORTH


CITY           SKY/WX    TMP DP  RH WIND       PRES   REMARKS
WATERTOWN      SUNNY     74  61  63 SW9       29.95F
FORT DRUM      NOT AVBL
MASSENA        MOSUNNY   75  60  59 W9        29.93S
SARANAC LAKE   MOSUNNY   76  58  53 W10       29.94F
PLATTSBURGH    MOSUNNY   81  62  52 NE15      29.86F
$$

NYZ001>004-010>016-019>021-272100-
WEST


CITY           SKY/WX    TMP DP  RH WIND       PRES   REMARKS
NIAGARA FALLS  PTSUNNY   75  54  47 NW10      30.01F
BUFFALO        PTSUNNY   75  60  59 SW10      30.01F
DUNKIRK        SUNNY     73  58  59 W13G21    30.05S
JAMESTOWN      MOSUNNY   72  61  68 W10       30.07S
WELLSVILLE     LGT RAIN  77  64  64 NW12      30.05F
ROCHESTER      MOSUNNY   77  58  51 NW10      29.99F
PENN YAN       SUNNY     80  63  55 NW9       29.99F
$$

             KEY
       WCI = WIND CHILL INDEX
       VSB = VISIBILITY
       HX  = HEAT INDEX
$$


USA.gov is the U.S. government's official web portal to all federal, state and local government web resources and services.